Location: Recife
(8.0585°S, 34.8848°W)
Time: 12:26:41
(UTC-03:00)

Injun/Solrad 3 - Pass Details

Date: 19 April 2026
Orbit: 868 x 988 km, 66.8° (Epoch: 12 May)

Event Time Altitude Azimuth Distance (km) Brightness Sun altitude
Rises 19:51:58 0° 224° (SW) 3,455 11.3 -39.0°
Reaches altitude 10° 19:54:57 10° 238° (WSW) 2,513 10.6 -39.8°
Maximum altitude 19:59:21 22° 288° (WNW) 1,788 9.8 -40.8°
Enters shadow 20:00:12 22° 301° (WNW) 1,822 9.8 -41.1°
Drops below altitude 10° 20:03:46 10° 338° (NNW) 2,523 - -41.9°
Sets 20:06:48 0° 353° (N) 3,472 - -42.7°
